Hill Air Force Base, UT

10:27 PM MDT on September 26, 2016 (GMT -0600)
Hill Air Force Base

Weather History for KHIF - March, 2013

Change the Weather History Date:

Friday, March 1, 2013

  Actual Average Record
Temperature  
Mean Temperature 37 °F -  
Max Temperature 42 °F 38 °F 64 °F (1967)
Min Temperature 32 °F 23 °F 12 °F (2002)
Degree Days  
Heating Degree Days 28    
Moisture  
Dew Point 23 °F    
Average Humidity 59    
Maximum Humidity 71    
Minimum Humidity 41    
Precipitation  
Precipitation 0.00 in - - ()
Sea Level Pressure  
Sea Level Pressure 30.52 in    
Wind  
Wind Speed 4 mph (ENE)    
Max Wind Speed 10 mph    
Max Gust Speed -    
Visibility 10 miles    
Events Snow    
Averages and records for this station are not official NWS values.
T = Trace of Precipitation, MM = Missing Value Source: NWS Daily Summary

Daily Weather History Graph

Daily Weather History Graph

Search for Another Location

Airport or City:

Trip Planner

Search our weather history database for the weather conditions in past years. The results will help you decide how hot, cold, wet, or windy it might be!

Date:

Astronomy

Mar. 01, 2013 Rise Set
Actual Time 7:01 AM MST 6:19 PM MST
Civil Twilight 6:34 AM MST 6:46 PM MST
Nautical Twilight 6:02 AM MST 7:18 PM MST
Astronomical Twilight 5:30 AM MST 7:50 PM MST
Moon 10:59 PM MST (3/1) 8:48 AM MST (3/1)
Length of Visible Light 12h 12m
Length of Day
11h 17m
Waning Gibbous, 83% of the Moon is Illuminated
Mar 1
Waning Gibbous
Mar 4
Last Quarter
Mar 11
New
Mar 19
First Quarter
Mar 27
Full

Hourly Weather History & Observations

Time (MST) Temp. Windchill Dew Point Humidity Pressure Visibility Wind Dir Wind Speed Gust Speed Precip Events Conditions
12:38 AM 32.0 °F 26.4 °F 21.2 °F 64% 30.48 in 10.0 mi SSE 5.8 mph - N/A   Overcast
12:43 AM 32.0 °F 26.4 °F 21.2 °F 64% 30.49 in 10.0 mi SSE 5.8 mph - N/A   Overcast
12:58 AM 32.4 °F 27.9 °F 19.4 °F 59% 30.53 in 10.0 mi SE 4.6 mph - N/A   Overcast
1:58 AM 33.6 °F 29.4 °F 19.8 °F 57% 30.53 in 10.0 mi SW 4.6 mph - N/A   Overcast
2:58 AM 33.4 °F 30.4 °F 18.5 °F 54% 30.52 in 10.0 mi Variable 3.5 mph - N/A   Overcast
3:58 AM 33.8 °F 30.8 °F 19.8 °F 56% 30.53 in 10.0 mi NW 3.5 mph - N/A   Overcast
4:13 AM 33.8 °F 29.6 °F 17.6 °F 52% 30.49 in 10.0 mi NNW 4.6 mph - N/A   Overcast
4:16 AM 33.8 °F 29.6 °F 17.6 °F 52% 30.49 in 10.0 mi NW 4.6 mph - N/A Snow Light Snow
4:21 AM 35.6 °F 32.8 °F 14.0 °F 41% 30.49 in 10.0 mi NNE 3.5 mph - N/A Snow Light Snow
4:36 AM 32.0 °F 27.5 °F 23.0 °F 69% 30.50 in 8.0 mi NE 4.6 mph - N/A Snow Light Snow
4:46 AM 32.0 °F 27.5 °F 21.2 °F 64% 30.50 in 10.0 mi ENE 4.6 mph - N/A Snow Light Snow
4:51 AM 32.0 °F 27.5 °F 19.4 °F 60% 30.50 in 10.0 mi East 4.6 mph - N/A Snow Light Snow
4:58 AM 33.6 °F 29.4 °F 19.2 °F 56% 30.53 in 10.0 mi East 4.6 mph - 0.00 in Snow Light Snow
5:00 AM 33.8 °F 28.6 °F 19.4 °F 56% 30.50 in 10.0 mi East 5.8 mph - N/A   Scattered Clouds
5:05 AM 33.8 °F 29.6 °F 19.4 °F 56% 30.49 in 10.0 mi East 4.6 mph - N/A   Mostly Cloudy
5:50 AM 33.8 °F - 21.2 °F 60% 30.50 in 10.0 mi NE 2.3 mph - N/A   Overcast
5:58 AM 34.3 °F - 21.0 °F 58% 30.53 in 10.0 mi Calm Calm - 0.00 in   Overcast
6:58 AM 33.8 °F 30.8 °F 23.4 °F 66% 30.56 in 10.0 mi NW 3.5 mph - N/A   Overcast
7:13 AM 32.0 °F 26.4 °F 21.2 °F 64% 30.52 in 10.0 mi North 5.8 mph - N/A   Overcast
7:58 AM 34.0 °F 29.8 °F 22.3 °F 62% 30.56 in 10.0 mi East 4.6 mph - N/A   Overcast
8:58 AM 35.2 °F - 24.3 °F 64% 30.59 in 10.0 mi East 2.3 mph - N/A   Overcast
9:04 AM 35.6 °F - 24.8 °F 65% 30.54 in 10.0 mi East 2.3 mph - N/A   Overcast
9:05 AM 35.6 °F - 24.8 °F 65% 30.55 in 10.0 mi East 2.3 mph - N/A   Overcast
9:50 AM 35.6 °F 31.7 °F 26.6 °F 70% 30.55 in 10.0 mi ESE 4.6 mph - N/A   Overcast
9:58 AM 35.8 °F 33.0 °F 25.5 °F 66% 30.59 in 10.0 mi ESE 3.5 mph - N/A   Overcast
10:58 AM 37.0 °F 34.5 °F 22.8 °F 56% 30.58 in 10.0 mi WSW 3.5 mph - N/A   Overcast
11:58 AM 38.3 °F - 22.3 °F 53% 30.58 in 10.0 mi West 2.3 mph - N/A   Overcast
12:58 PM 39.4 °F 37.2 °F 23.2 °F 52% 30.56 in 10.0 mi NNW 3.5 mph - N/A   Overcast
1:58 PM 40.6 °F - 23.2 °F 50% 30.52 in 10.0 mi WNW 2.3 mph - N/A   Overcast
2:58 PM 41.9 °F - 22.3 °F 46% 30.52 in 10.0 mi NNE 1.2 mph - N/A   Overcast
3:58 PM 42.1 °F 39.2 °F 24.3 °F 49% 30.54 in 10.0 mi NW 4.6 mph - N/A   Overcast
4:58 PM 41.0 °F - 25.5 °F 54% 30.52 in 10.0 mi North 2.3 mph - N/A   Overcast
5:43 PM 41.0 °F 39.0 °F 24.8 °F 53% 30.49 in 10.0 mi ESE 3.5 mph - N/A   Mostly Cloudy
5:48 PM 41.0 °F - 26.6 °F 57% 30.49 in 10.0 mi ESE 2.3 mph - N/A   Scattered Clouds
5:53 PM 39.2 °F - 26.6 °F 61% 30.49 in 10.0 mi ESE 2.3 mph - N/A   Mostly Cloudy
5:58 PM 39.6 °F - 26.2 °F 59% 30.51 in 10.0 mi ESE 2.3 mph - N/A   Mostly Cloudy
6:58 PM 37.8 °F 32.5 °F 26.6 °F 64% 30.53 in 10.0 mi NNW 6.9 mph - N/A   Overcast
7:58 PM 37.0 °F - 26.8 °F 66% 30.53 in 10.0 mi East 1.2 mph - N/A   Overcast
8:58 PM 36.3 °F - 27.0 °F 69% 30.53 in 10.0 mi NNE 1.2 mph - N/A   Overcast
9:58 PM 37.2 °F 33.6 °F 27.1 °F 67% 30.52 in 10.0 mi SE 4.6 mph - N/A   Mostly Cloudy
10:08 PM 37.4 °F 31.4 °F 26.6 °F 65% 30.50 in 10.0 mi ESE 8.1 mph - N/A   Scattered Clouds
10:58 PM 37.6 °F 30.5 °F 26.8 °F 65% 30.51 in 10.0 mi ESE 10.4 mph - N/A   Clear
11:58 PM 35.6 °F - 27.0 °F 71% 30.52 in 10.0 mi East 2.3 mph - N/A   Clear